Time,TemperatureF,DewpointF,PressureIn,WindDirection,WindDirectionDegrees,WindSpeedMPH,WindSpeedGustMPH,Humidity,HourlyPrecipIn,Conditions,Clouds,dailyrainin,SoftwareType,DateUTC
2013-03-01 00:00:00,35.7,31.6,29.60,WNW,296,3.0,4.0,85,0.00,,,0.00,LWC V2.11 B50,2013-03-01 05:00:00,
2013-03-01 00:05:00,35.7,31.6,29.60,WNW,298,1.0,3.0,85,0.00,,,0.00,LWC V2.11 B50,2013-03-01 05:05:00,
2013-03-01 00:10:00,35.6,31.5,29.60,WNW,298,0.0,1.0,85,0.00,,,0.00,LWC V2.11 B50,2013-03-01 05:10:00,
2013-03-01 00:15:00,35.6,31.5,29.59,West,278,0.0,0.0,85,0.00,,,0.00,LWC V2.11 B50,2013-03-01 05:15:00,
2013-03-01 00:20:00,35.5,31.4,29.59,WNW,284,0.0,1.0,85,0.00,,,0.00,LWC V2.11 B50,2013-03-01 05:20:00,
2013-03-01 00:25:00,35.5,31.4,29.59,WNW,286,0.0,0.0,85,0.00,,,0.00,LWC V2.11 B50,2013-03-01 05:25:00,
2013-03-01 00:30:00,35.4,31.3,29.59,WNW,296,0.0,2.0,85,0.00,,,0.00,LWC V2.11 B50,2013-03-01 05:30:00,
2013-03-01 00:35:00,35.4,31.3,29.59,WNW,299,0.0,1.0,85,0.00,,,0.00,LWC V2.11 B50,2013-03-01 05:35:00,
2013-03-01 00:40:00,35.3,31.2,29.59,West,279,0.0,1.0,85,0.00,,,0.00,LWC V2.11 B50,2013-03-01 05:40:00,
2013-03-01 00:45:00,35.3,31.2,29.59,NW,304,3.0,10.0,85,0.00,,,0.00,LWC V2.11 B50,2013-03-01 05:45:00,
2013-03-01 00:50:00,35.3,31.2,29.60,WNW,289,1.0,9.0,85,0.00,,,0.00,LWC V2.11 B50,2013-03-01 05:50:00,
2013-03-01 00:55:00,35.2,31.2,29.60,WNW,290,0.0,2.0,85,0.00,,,0.00,LWC V2.11 B50,2013-03-01 05:55:00,
2013-03-01 01:00:00,35.2,31.2,29.60,West,277,2.0,11.0,85,0.00,,,0.00,LWC V2.11 B50,2013-03-01 06:00:00,
2013-03-01 01:05:00,35.3,31.2,29.60,WNW,284,5.0,7.0,85,0.00,,,0.00,LWC V2.11 B50,2013-03-01 06:05:00,
2013-03-01 01:10:00,35.2,31.2,29.60,WNW,290,4.0,4.0,85,0.00,,,0.00,LWC V2.11 B50,2013-03-01 06:10:00,
2013-03-01 01:15:00,35.1,31.1,29.60,WNW,285,2.0,7.0,85,0.00,,,0.00,LWC V2.11 B50,2013-03-01 06:15:00,
2013-03-01 01:20:00,35.1,31.1,29.60,West,271,2.0,6.0,85,0.00,,,0.00,LWC V2.11 B50,2013-03-01 06:20:00,
2013-03-01 01:25:00,35.1,31.1,29.60,West,272,4.0,8.0,85,0.00,,,0.00,LWC V2.11 B50,2013-03-01 06:25:00,
2013-03-01 01:30:00,35.0,31.2,29.60,WNW,294,2.0,7.0,86,0.00,,,0.00,LWC V2.11 B50,2013-03-01 06:30:00,
2013-03-01 01:35:00,35.0,31.0,29.60,WNW,288,5.0,5.0,85,0.00,,,0.00,LWC V2.11 B50,2013-03-01 06:35:00,
2013-03-01 01:40:00,34.9,31.1,29.60,West,277,0.0,2.0,86,0.00,,,0.00,LWC V2.11 B50,2013-03-01 06:40:00,
2013-03-01 01:45:00,34.8,31.0,29.60,WNW,292,6.0,6.0,86,0.00,,,0.00,LWC V2.11 B50,2013-03-01 06:45:00,
2013-03-01 01:50:00,34.7,30.9,29.60,WNW,292,3.0,4.0,86,0.00,,,0.00,LWC V2.11 B50,2013-03-01 06:50:00,
2013-03-01 01:55:00,34.6,30.9,29.60,WNW,288,0.0,5.0,86,0.00,,,0.00,LWC V2.11 B50,2013-03-01 06:55:00,
2013-03-01 02:00:00,34.5,30.8,29.61,West,277,0.0,4.0,86,0.00,,,0.00,LWC V2.11 B50,2013-03-01 07:00:00,
2013-03-01 02:05:00,34.4,30.7,29.61,WNW,290,0.0,2.0,86,0.00,,,0.00,LWC V2.11 B50,2013-03-01 07:05:00,
2013-03-01 02:10:00,34.4,30.7,29.61,WNW,284,0.0,0.0,86,0.00,,,0.00,LWC V2.11 B50,2013-03-01 07:10:00,
2013-03-01 02:15:00,34.3,30.6,29.61,West,276,0.0,0.0,86,0.00,,,0.00,LWC V2.11 B50,2013-03-01 07:15:00,
2013-03-01 02:20:00,34.2,30.5,29.61,West,276,0.0,0.0,86,0.00,,,0.00,LWC V2.11 B50,2013-03-01 07:20:00,
2013-03-01 02:25:00,34.1,30.6,29.61,WNW,294,0.0,0.0,87,0.00,,,0.00,LWC V2.11 B50,2013-03-01 07:25:00,
2013-03-01 02:30:00,34.2,30.7,29.61,WNW,294,0.0,0.0,87,0.00,,,0.00,LWC V2.11 B50,2013-03-01 07:30:00,
2013-03-01 02:35:00,34.3,30.8,29.61,WNW,300,0.0,3.0,87,0.00,,,0.00,LWC V2.11 B50,2013-03-01 07:35:00,
2013-03-01 02:40:00,34.2,30.7,29.61,WNW,285,0.0,0.0,87,0.00,,,0.00,LWC V2.11 B50,2013-03-01 07:40:00,
2013-03-01 02:45:00,34.2,30.7,29.61,WNW,284,0.0,0.0,87,0.00,,,0.00,LWC V2.11 B50,2013-03-01 07:45:00,
2013-03-01 02:50:00,34.2,30.7,29.60,West,281,1.0,5.0,87,0.00,,,0.00,LWC V2.11 B50,2013-03-01 07:50:00,
2013-03-01 02:55:00,34.2,30.7,29.61,WNW,300,5.0,6.0,87,0.00,,,0.00,LWC V2.11 B50,2013-03-01 07:55:00,
2013-03-01 03:00:00,34.1,30.6,29.61,NW,304,0.0,4.0,87,0.00,,,0.00,LWC V2.11 B50,2013-03-01 08:00:00,
2013-03-01 03:05:00,34.1,30.6,29.62,WNW,285,0.0,3.0,87,0.00,,,0.00,LWC V2.11 B50,2013-03-01 08:05:00,
2013-03-01 03:10:00,34.0,30.5,29.62,WNW,284,0.0,4.0,87,0.00,,,0.00,LWC V2.11 B50,2013-03-01 08:10:00,
2013-03-01 03:15:00,33.8,30.3,29.62,WNW,284,0.0,0.0,87,0.00,,,0.00,LWC V2.11 B50,2013-03-01 08:15:00,
2013-03-01 03:20:00,33.7,30.2,29.62,WNW,294,0.0,9.0,87,0.00,,,0.00,LWC V2.11 B50,2013-03-01 08:20:00,
2013-03-01 03:25:00,33.6,30.2,29.62,WNW,294,0.0,0.0,87,0.00,,,0.00,LWC V2.11 B50,2013-03-01 08:25:00,
2013-03-01 03:30:00,33.5,30.3,29.62,WNW,294,0.0,0.0,88,0.00,,,0.00,LWC V2.11 B50,2013-03-01 08:30:00,
2013-03-01 03:35:00,33.5,30.3,29.62,WNW,282,0.0,2.0,88,0.00,,,0.00,LWC V2.11 B50,2013-03-01 08:35:00,
2013-03-01 03:40:00,33.5,30.3,29.62,WNW,282,0.0,0.0,88,0.00,,,0.00,LWC V2.11 B50,2013-03-01 08:40:00,
2013-03-01 03:45:00,33.4,30.2,29.62,West,281,0.0,0.0,88,0.00,,,0.00,LWC V2.11 B50,2013-03-01 08:45:00,
2013-03-01 03:50:00,33.3,30.1,29.62,WNW,282,0.0,0.0,88,0.00,,,0.00,LWC V2.11 B50,2013-03-01 08:50:00,
2013-03-01 03:55:00,33.2,30.0,29.62,WNW,282,0.0,0.0,88,0.00,,,0.00,LWC V2.11 B50,2013-03-01 08:55:00,
2013-03-01 04:00:00,33.1,29.9,29.62,WNW,282,0.0,0.0,88,0.00,,,0.00,LWC V2.11 B50,2013-03-01 09:00:00,
2013-03-01 04:05:00,32.9,29.7,29.63,WNW,282,0.0,0.0,88,0.00,,,0.00,LWC V2.11 B50,2013-03-01 09:05:00,
2013-03-01 04:10:00,32.9,29.7,29.63,WNW,282,0.0,0.0,88,0.00,,,0.00,LWC V2.11 B50,2013-03-01 09:10:00,
2013-03-01 04:15:00,32.8,29.6,29.63,WNW,282,0.0,0.0,88,0.00,,,0.00,LWC V2.11 B50,2013-03-01 09:15:00,
2013-03-01 04:20:00,32.7,29.5,29.63,West,281,0.0,0.0,88,0.00,,,0.00,LWC V2.11 B50,2013-03-01 09:20:00,
2013-03-01 04:25:00,32.7,29.8,29.63,West,281,0.0,0.0,89,0.00,,,0.00,LWC V2.11 B50,2013-03-01 09:25:00,
2013-03-01 04:30:00,32.6,29.7,29.63,WNW,282,0.0,0.0,89,0.00,,,0.00,LWC V2.11 B50,2013-03-01 09:30:00,
2013-03-01 04:35:00,32.5,29.3,29.63,WNW,282,0.0,0.0,88,0.00,,,0.00,LWC V2.11 B50,2013-03-01 09:35:00,
2013-03-01 04:40:00,32.3,29.4,29.63,WNW,282,0.0,0.0,89,0.00,,,0.00,LWC V2.11 B50,2013-03-01 09:40:00,
2013-03-01 04:45:00,32.4,29.5,29.63,West,281,0.0,0.0,89,0.00,,,0.00,LWC V2.11 B50,2013-03-01 09:45:00,
2013-03-01 04:50:00,32.6,29.7,29.63,WNW,282,0.0,0.0,89,0.00,,,0.00,LWC V2.11 B50,2013-03-01 09:50:00,
2013-03-01 04:55:00,32.6,29.7,29.64,West,281,0.0,0.0,89,0.00,,,0.00,LWC V2.11 B50,2013-03-01 09:55:00,
2013-03-01 05:00:00,32.8,29.9,29.64,West,281,0.0,0.0,89,0.00,,,0.00,LWC V2.11 B50,2013-03-01 10:00:00,
2013-03-01 05:05:00,33.0,30.1,29.64,WNW,282,0.0,0.0,89,0.00,,,0.00,LWC V2.11 B50,2013-03-01 10:05:00,
2013-03-01 05:10:00,33.3,30.4,29.64,West,281,0.0,2.0,89,0.00,,,0.00,LWC V2.11 B50,2013-03-01 10:10:00,
2013-03-01 05:15:00,33.6,30.7,29.64,WNW,285,1.0,5.0,89,0.00,,,0.00,LWC V2.11 B50,2013-03-01 10:15:00,
2013-03-01 05:20:00,33.9,31.0,29.65,WNW,283,0.0,0.0,89,0.00,,,0.00,LWC V2.11 B50,2013-03-01 10:20:00,
2013-03-01 05:25:00,34.3,31.1,29.65,WNW,296,0.0,0.0,88,0.00,,,0.00,LWC V2.11 B50,2013-03-01 10:25:00,
2013-03-01 05:30:00,34.5,31.3,29.64,WNW,286,0.0,0.0,88,0.00,,,0.00,LWC V2.11 B50,2013-03-01 10:30:00,
2013-03-01 05:35:00,34.8,31.6,29.64,WNW,294,2.0,2.0,88,0.00,,,0.00,LWC V2.11 B50,2013-03-01 10:35:00,
2013-03-01 05:40:00,35.0,31.5,29.64,WNW,286,0.0,1.0,87,0.00,,,0.00,LWC V2.11 B50,2013-03-01 10:40:00,
2013-03-01 05:45:00,35.3,31.8,29.64,WNW,288,0.0,1.0,87,0.00,,,0.00,LWC V2.11 B50,2013-03-01 10:45:00,
2013-03-01 05:50:00,35.5,31.7,29.64,WNW,298,0.0,0.0,86,0.00,,,0.00,LWC V2.11 B50,2013-03-01 10:50:00,
2013-03-01 05:55:00,35.6,31.8,29.64,WNW,296,0.0,0.0,86,0.00,,,0.00,LWC V2.11 B50,2013-03-01 10:55:00,
2013-03-01 06:00:00,35.9,31.8,29.64,WNW,290,0.0,0.0,85,0.00,,,0.00,LWC V2.11 B50,2013-03-01 11:00:00,
2013-03-01 06:05:00,35.9,31.8,29.64,WNW,292,0.0,1.0,85,0.00,,,0.00,LWC V2.11 B50,2013-03-01 11:05:00,
2013-03-01 06:10:00,36.0,31.9,29.64,NW,307,1.0,1.0,85,0.00,,,0.00,LWC V2.11 B50,2013-03-01 11:10:00,
2013-03-01 06:15:00,35.9,31.5,29.64,WNW,295,0.0,1.0,84,0.00,,,0.00,LWC V2.11 B50,2013-03-01 11:15:00,
2013-03-01 06:20:00,35.7,31.4,29.64,WNW,288,1.0,2.0,84,0.00,,,0.00,LWC V2.11 B50,2013-03-01 11:20:00,
2013-03-01 06:25:00,35.5,31.2,29.64,WNW,298,0.0,1.0,84,0.00,,,0.00,LWC V2.11 B50,2013-03-01 11:25:00,
2013-03-01 06:30:00,35.3,31.0,29.64,WNW,284,0.0,0.0,84,0.00,,,0.00,LWC V2.11 B50,2013-03-01 11:30:00,
2013-03-01 06:35:00,35.1,31.1,29.65,WNW,284,0.0,0.0,85,0.00,,,0.00,LWC V2.11 B50,2013-03-01 11:35:00,
2013-03-01 06:40:00,35.1,31.1,29.65,NW,305,1.0,7.0,85,0.00,,,0.00,LWC V2.11 B50,2013-03-01 11:40:00,
2013-03-01 06:45:00,35.1,30.8,29.65,WNW,296,0.0,1.0,84,0.00,,,0.00,LWC V2.11 B50,2013-03-01 11:45:00,
2013-03-01 06:50:00,35.1,30.8,29.66,WNW,286,3.0,7.0,84,0.00,,,0.00,LWC V2.11 B50,2013-03-01 11:50:00,
2013-03-01 06:55:00,35.1,30.8,29.66,WNW,302,0.0,0.0,84,0.00,,,0.00,LWC V2.11 B50,2013-03-01 11:55:00,
2013-03-01 07:00:00,35.1,30.8,29.66,WNW,295,0.0,1.0,84,0.00,,,0.00,LWC V2.11 B50,2013-03-01 12:00:00,
2013-03-01 07:05:00,35.2,30.9,29.66,WNW,288,0.0,6.0,84,0.00,,,0.00,LWC V2.11 B50,2013-03-01 12:05:00,
2013-03-01 07:10:00,35.3,31.0,29.66,WNW,291,5.0,8.0,84,0.00,,,0.00,LWC V2.11 B50,2013-03-01 12:10:00,
2013-03-01 07:15:00,35.6,31.3,29.66,WNW,299,5.0,5.0,84,0.00,,,0.00,LWC V2.11 B50,2013-03-01 12:15:00,
2013-03-01 07:20:00,35.8,31.2,29.67,West,275,1.0,1.0,83,0.00,,,0.00,LWC V2.11 B50,2013-03-01 12:20:00,
2013-03-01 07:25:00,36.1,31.4,29.67,WNW,298,0.0,2.0,83,0.00,,,0.00,LWC V2.11 B50,2013-03-01 12:25:00,
2013-03-01 07:30:00,36.4,31.4,29.67,NW,304,0.0,1.0,82,0.00,,,0.00,LWC V2.11 B50,2013-03-01 12:30:00,
2013-03-01 07:35:00,36.7,31.7,29.67,WNW,294,3.0,3.0,82,0.00,,,0.00,LWC V2.11 B50,2013-03-01 12:35:00,
2013-03-01 07:40:00,36.9,31.6,29.67,WNW,286,0.0,2.0,81,0.00,,,0.00,LWC V2.11 B50,2013-03-01 12:40:00,
2013-03-01 07:45:00,37.2,31.9,29.68,WNW,289,0.0,0.0,81,0.00,,,0.00,LWC V2.11 B50,2013-03-01 12:45:00,
2013-03-01 07:50:00,37.5,31.9,29.67,WNW,295,2.0,7.0,80,0.00,,,0.00,LWC V2.11 B50,2013-03-01 12:50:00,
2013-03-01 07:55:00,37.8,32.2,29.67,West,281,1.0,4.0,80,0.00,,,0.00,LWC V2.11 B50,2013-03-01 12:55:00,
2013-03-01 08:00:00,38.2,32.3,29.68,West,281,2.0,10.0,79,0.00,,,0.00,LWC V2.11 B50,2013-03-01 13:00:00,
2013-03-01 08:05:00,38.4,32.5,29.68,WNW,290,1.0,6.0,79,0.00,,,0.00,LWC V2.11 B50,2013-03-01 13:05:00,
2013-03-01 08:10:00,38.6,32.3,29.68,WNW,292,0.0,1.0,78,0.00,,,0.00,LWC V2.11 B50,2013-03-01 13:10:00,
2013-03-01 08:15:00,38.9,32.6,29.69,WNW,294,0.0,0.0,78,0.00,,,0.00,LWC V2.11 B50,2013-03-01 13:15:00,
2013-03-01 08:20:00,39.2,32.9,29.68,WNW,294,6.0,9.0,78,0.00,,,0.00,LWC V2.11 B50,2013-03-01 13:20:00,
2013-03-01 08:25:00,39.5,32.9,29.69,WNW,290,3.0,10.0,77,0.00,,,0.00,LWC V2.11 B50,2013-03-01 13:25:00,
2013-03-01 08:30:00,39.7,32.8,29.68,WNW,294,0.0,1.0,76,0.00,,,0.00,LWC V2.11 B50,2013-03-01 13:30:00,
2013-03-01 08:35:00,40.2,32.9,29.68,WNW,292,0.0,3.0,75,0.00,,,0.00,LWC V2.11 B50,2013-03-01 13:35:00,
2013-03-01 08:40:00,40.1,32.5,29.69,NW,314,0.0,0.0,74,0.00,,,0.00,LWC V2.11 B50,2013-03-01 13:40:00,
2013-03-01 08:45:00,40.0,32.4,29.68,WNW,286,1.0,9.0,74,0.00,,,0.00,LWC V2.11 B50,2013-03-01 13:45:00,
2013-03-01 08:50:00,40.0,32.4,29.68,WNW,300,1.0,3.0,74,0.00,,,0.00,LWC V2.11 B50,2013-03-01 13:50:00,
2013-03-01 08:55:00,40.0,32.1,29.69,West,268,0.0,0.0,73,0.00,,,0.00,LWC V2.11 B50,2013-03-01 13:55:00,
2013-03-01 09:00:00,40.1,32.2,29.68,WNW,289,0.0,0.0,73,0.00,,,0.00,LWC V2.11 B50,2013-03-01 14:00:00,
2013-03-01 09:05:00,40.2,32.6,29.68,West,280,1.0,9.0,74,0.00,,,0.00,LWC V2.11 B50,2013-03-01 14:05:00,
2013-03-01 09:10:00,40.2,32.6,29.68,WNW,292,0.0,1.0,74,0.00,,,0.00,LWC V2.11 B50,2013-03-01 14:10:00,
2013-03-01 09:15:00,40.2,32.2,29.68,WNW,303,0.0,7.0,73,0.00,,,0.00,LWC V2.11 B50,2013-03-01 14:15:00,
2013-03-01 09:20:00,40.1,32.2,29.68,WNW,283,0.0,11.0,73,0.00,,,0.00,LWC V2.11 B50,2013-03-01 14:20:00,
2013-03-01 09:25:00,39.9,31.6,29.69,NW,304,0.0,11.0,72,0.00,,,0.00,LWC V2.11 B50,2013-03-01 14:25:00,
2013-03-01 09:30:00,39.8,31.9,29.69,WNW,288,0.0,2.0,73,0.00,,,0.00,LWC V2.11 B50,2013-03-01 14:30:00,
2013-03-01 09:35:00,39.9,32.0,29.70,NNW,348,1.0,1.0,73,0.00,,,0.00,LWC V2.11 B50,2013-03-01 14:35:00,
2013-03-01 09:40:00,39.9,31.6,29.70,West,281,0.0,11.0,72,0.00,,,0.00,LWC V2.11 B50,2013-03-01 14:40:00,
2013-03-01 09:45:00,39.9,31.6,29.70,WNW,298,0.0,0.0,72,0.00,,,0.00,LWC V2.11 B50,2013-03-01 14:45:00,
2013-03-01 09:50:00,40.0,31.4,29.70,NW,304,0.0,2.0,71,0.00,,,0.00,LWC V2.11 B50,2013-03-01 14:50:00,
2013-03-01 09:55:00,40.1,31.1,29.70,WNW,300,3.0,7.0,70,0.00,,,0.00,LWC V2.11 B50,2013-03-01 14:55:00,
2013-03-01 10:00:00,40.4,31.4,29.70,WNW,295,0.0,1.0,70,0.00,,,0.00,LWC V2.11 B50,2013-03-01 15:00:00,
2013-03-01 10:05:00,40.6,30.9,29.70,WNW,288,4.0,14.0,68,0.00,,,0.00,LWC V2.11 B50,2013-03-01 15:05:00,
2013-03-01 10:10:00,40.8,31.1,29.70,WNW,286,1.0,2.0,68,0.00,,,0.00,LWC V2.11 B50,2013-03-01 15:10:00,
2013-03-01 10:15:00,41.1,31.4,29.70,WNW,284,0.0,4.0,68,0.00,,,0.00,LWC V2.11 B50,2013-03-01 15:15:00,
2013-03-01 10:20:00,41.2,31.1,29.70,WNW,284,6.0,10.0,67,0.00,,,0.00,LWC V2.11 B50,2013-03-01 15:20:00,
2013-03-01 10:25:00,41.1,30.6,29.70,WNW,294,3.0,3.0,66,0.00,,,0.00,LWC V2.11 B50,2013-03-01 15:25:00,
2013-03-01 10:30:00,41.0,31.3,29.70,West,281,0.0,5.0,68,0.00,,,0.00,LWC V2.11 B50,2013-03-01 15:30:00,
2013-03-01 10:35:00,40.7,31.0,29.70,WNW,294,0.0,10.0,68,0.00,,,0.00,LWC V2.11 B50,2013-03-01 15:35:00,
2013-03-01 10:40:00,40.5,31.1,29.70,West,280,0.0,6.0,69,0.00,,,0.00,LWC V2.11 B50,2013-03-01 15:40:00,
2013-03-01 10:45:00,40.4,31.0,29.70,WNW,290,0.0,10.0,69,0.00,,,0.00,LWC V2.11 B50,2013-03-01 15:45:00,
2013-03-01 10:50:00,40.4,31.4,29.69,WNW,290,3.0,13.0,70,0.00,,,0.00,LWC V2.11 B50,2013-03-01 15:50:00,
2013-03-01 10:55:00,40.5,31.5,29.69,WNW,300,0.0,1.0,70,0.00,,,0.00,LWC V2.11 B50,2013-03-01 15:55:00,
2013-03-01 11:00:00,40.7,31.7,29.70,WNW,294,0.0,0.0,70,0.00,,,0.00,LWC V2.11 B50,2013-03-01 16:00:00,
2013-03-01 11:05:00,40.7,31.3,29.69,WNW,286,0.0,0.0,69,0.00,,,0.00,LWC V2.11 B50,2013-03-01 16:05:00,
2013-03-01 11:10:00,40.9,31.5,29.69,NW,306,0.0,1.0,69,0.00,,,0.00,LWC V2.11 B50,2013-03-01 16:10:00,
2013-03-01 11:15:00,41.1,31.4,29.70,North,0,1.0,6.0,68,0.00,,,0.00,LWC V2.11 B50,2013-03-01 16:15:00,
2013-03-01 11:20:00,41.1,31.4,29.69,WNW,302,2.0,10.0,68,0.00,,,0.00,LWC V2.11 B50,2013-03-01 16:20:00,
2013-03-01 11:25:00,41.3,31.5,29.69,NW,310,11.0,12.0,68,0.00,,,0.00,LWC V2.11 B50,2013-03-01 16:25:00,
2013-03-01 11:28:00,41.5,31.4,29.70,WNW,284,4.0,11.0,67,0.00,,,0.00,LWC V2.11 B50,2013-03-01 16:28:00,
2013-03-01 11:33:00,41.5,30.6,29.70,West,281,8.0,14.0,65,0.00,,,0.00,LWC V2.11 B50,2013-03-01 16:33:00,
2013-03-01 11:38:00,41.5,30.6,29.70,West,276,1.0,10.0,65,0.00,,,0.00,LWC V2.11 B50,2013-03-01 16:38:00,
2013-03-01 11:43:00,41.7,31.9,29.70,South,182,2.0,14.0,68,0.00,,,0.00,LWC V2.11 B50,2013-03-01 16:43:00,
2013-03-01 11:48:00,41.6,32.6,29.70,WNW,286,3.0,8.0,70,0.00,,,0.00,LWC V2.11 B50,2013-03-01 16:48:00,
2013-03-01 11:53:00,41.6,32.6,29.70,WNW,291,2.0,9.0,70,0.00,,,0.00,LWC V2.11 B50,2013-03-01 16:53:00,
2013-03-01 11:58:00,42.0,33.3,29.69,West,271,2.0,11.0,71,0.00,,,0.00,LWC V2.11 B50,2013-03-01 16:58:00,
2013-03-01 12:03:00,42.2,32.4,29.70,WNW,303,1.0,11.0,68,0.00,,,0.00,LWC V2.11 B50,2013-03-01 17:03:00,
2013-03-01 12:08:00,42.4,32.6,29.69,WNW,288,10.0,11.0,68,0.00,,,0.00,LWC V2.11 B50,2013-03-01 17:08:00,
2013-03-01 12:13:00,42.6,32.0,29.69,NW,304,6.0,14.0,66,0.00,,,0.00,LWC V2.11 B50,2013-03-01 17:13:00,
2013-03-01 12:18:00,42.5,32.0,29.69,WNW,300,4.0,9.0,66,0.00,,,0.00,LWC V2.11 B50,2013-03-01 17:18:00,
2013-03-01 12:23:00,42.0,31.9,29.69,West,276,1.0,7.0,67,0.00,,,0.00,LWC V2.11 B50,2013-03-01 17:23:00,
2013-03-01 12:28:00,42.0,31.5,29.69,WSW,240,0.0,11.0,66,0.00,,,0.00,LWC V2.11 B50,2013-03-01 17:28:00,
2013-03-01 12:33:00,42.2,31.3,29.68,WNW,291,4.0,11.0,65,0.00,,,0.00,LWC V2.11 B50,2013-03-01 17:33:00,
2013-03-01 12:38:00,42.3,31.4,29.68,WNW,295,6.0,6.0,65,0.00,,,0.00,LWC V2.11 B50,2013-03-01 17:38:00,
2013-03-01 12:43:00,42.4,30.7,29.68,WNW,286,6.0,9.0,63,0.00,,,0.00,LWC V2.11 B50,2013-03-01 17:43:00,
2013-03-01 12:48:00,42.3,30.6,29.68,WNW,286,0.0,6.0,63,0.00,,,0.00,LWC V2.11 B50,2013-03-01 17:48:00,
2013-03-01 12:53:00,42.4,29.9,29.68,North,350,0.0,11.0,61,0.00,,,0.00,LWC V2.11 B50,2013-03-01 17:53:00,
2013-03-01 12:58:00,42.5,30.4,29.68,West,272,0.0,1.0,62,0.00,,,0.00,LWC V2.11 B50,2013-03-01 17:58:00,
2013-03-01 13:03:00,42.7,30.6,29.68,WNW,290,2.0,11.0,62,0.00,,,0.00,LWC V2.11 B50,2013-03-01 18:03:00,
2013-03-01 13:08:00,42.7,30.6,29.68,WNW,297,0.0,11.0,62,0.00,,,0.00,LWC V2.11 B50,2013-03-01 18:08:00,
2013-03-01 13:13:00,42.8,30.7,29.68,NW,317,0.0,11.0,62,0.00,,,0.00,LWC V2.11 B50,2013-03-01 18:13:00,
2013-03-01 13:18:00,42.9,30.8,29.68,WNW,299,0.0,11.0,62,0.00,,,0.00,LWC V2.11 B50,2013-03-01 18:18:00,
2013-03-01 13:23:00,42.9,30.0,29.68,NW,319,1.0,15.0,60,0.00,,,0.00,LWC V2.11 B50,2013-03-01 18:23:00,
2013-03-01 13:28:00,43.0,30.1,29.68,WNW,288,4.0,14.0,60,0.00,,,0.00,LWC V2.11 B50,2013-03-01 18:28:00,
2013-03-01 13:33:00,42.8,30.3,29.68,WNW,290,5.0,9.0,61,0.00,,,0.00,LWC V2.11 B50,2013-03-01 18:33:00,
2013-03-01 13:38:00,42.8,30.3,29.68,WNW,295,11.0,15.0,61,0.00,,,0.00,LWC V2.11 B50,2013-03-01 18:38:00,
2013-03-01 13:43:00,42.7,30.6,29.68,NW,308,7.0,9.0,62,0.00,,,0.00,LWC V2.11 B50,2013-03-01 18:43:00,
2013-03-01 13:48:00,42.6,30.1,29.68,NW,311,14.0,14.0,61,0.00,,,0.00,LWC V2.11 B50,2013-03-01 18:48:00,
2013-03-01 13:53:00,42.5,30.0,29.68,WNW,298,0.0,6.0,61,0.00,,,0.00,LWC V2.11 B50,2013-03-01 18:53:00,
2013-03-01 13:58:00,42.5,30.4,29.68,WNW,297,0.0,10.0,62,0.00,,,0.00,LWC V2.11 B50,2013-03-01 18:58:00,
2013-03-01 14:03:00,42.9,30.8,29.68,WNW,288,0.0,6.0,62,0.00,,,0.00,LWC V2.11 B50,2013-03-01 19:03:00,
2013-03-01 14:08:00,43.2,30.7,29.68,WNW,286,5.0,11.0,61,0.00,,,0.00,LWC V2.11 B50,2013-03-01 19:08:00,
2013-03-01 14:13:00,43.2,30.7,29.68,WNW,286,0.0,5.0,61,0.00,,,0.00,LWC V2.11 B50,2013-03-01 19:13:00,
2013-03-01 14:18:00,43.2,30.7,29.68,WNW,295,11.0,13.0,61,0.00,,,0.00,LWC V2.11 B50,2013-03-01 19:18:00,
2013-03-01 14:23:00,43.0,31.7,29.68,WNW,296,7.0,10.0,64,0.00,,,0.00,LWC V2.11 B50,2013-03-01 19:23:00,
2013-03-01 14:28:00,42.7,31.8,29.68,WNW,290,3.0,11.0,65,0.00,,,0.00,LWC V2.11 B50,2013-03-01 19:28:00,
2013-03-01 14:33:00,42.5,31.6,29.68,WNW,302,1.0,13.0,65,0.00,,,0.00,LWC V2.11 B50,2013-03-01 19:33:00,
2013-03-01 14:38:00,42.4,31.5,29.68,West,278,1.0,10.0,65,0.00,,,0.00,LWC V2.11 B50,2013-03-01 19:38:00,
2013-03-01 14:43:00,42.5,31.2,29.68,West,277,7.0,14.0,64,0.00,,,0.00,LWC V2.11 B50,2013-03-01 19:43:00,
2013-03-01 14:48:00,42.9,31.2,29.68,NNW,327,0.0,5.0,63,0.00,,,0.00,LWC V2.11 B50,2013-03-01 19:48:00,
2013-03-01 14:53:00,43.6,31.0,29.68,NW,323,7.0,13.0,61,0.00,,,0.00,LWC V2.11 B50,2013-03-01 19:53:00,
2013-03-01 14:58:00,43.8,31.2,29.68,WNW,291,10.0,13.0,61,0.00,,,0.00,LWC V2.11 B50,2013-03-01 19:58:00,
2013-03-01 15:03:00,43.7,30.7,29.68,WNW,283,7.0,11.0,60,0.00,,,0.00,LWC V2.11 B50,2013-03-01 20:03:00,
2013-03-01 15:08:00,43.4,30.0,29.68,WNW,289,5.0,14.0,59,0.00,,,0.00,LWC V2.11 B50,2013-03-01 20:08:00,
2013-03-01 15:13:00,43.3,29.5,29.68,NW,313,7.0,13.0,58,0.00,,,0.00,LWC V2.11 B50,2013-03-01 20:13:00,
2013-03-01 15:18:00,43.2,29.4,29.68,WNW,290,6.0,13.0,58,0.00,,,0.00,LWC V2.11 B50,2013-03-01 20:18:00,
2013-03-01 15:23:00,43.1,29.3,29.67,WNW,302,7.0,13.0,58,0.00,,,0.00,LWC V2.11 B50,2013-03-01 20:23:00,
2013-03-01 15:28:00,43.2,29.9,29.68,WNW,296,12.0,12.0,59,0.00,,,0.00,LWC V2.11 B50,2013-03-01 20:28:00,
2013-03-01 15:33:00,43.4,30.0,29.68,WNW,290,0.0,2.0,59,0.00,,,0.00,LWC V2.11 B50,2013-03-01 20:33:00,
2013-03-01 15:38:00,43.7,29.9,29.68,WNW,298,10.0,14.0,58,0.00,,,0.00,LWC V2.11 B50,2013-03-01 20:38:00,
2013-03-01 15:43:00,43.9,30.1,29.68,WNW,299,3.0,15.0,58,0.00,,,0.00,LWC V2.11 B50,2013-03-01 20:43:00,
2013-03-01 15:48:00,44.2,29.9,29.68,WNW,290,3.0,13.0,57,0.00,,,0.00,LWC V2.11 B50,2013-03-01 20:48:00,
2013-03-01 15:53:00,44.0,29.8,29.68,WNW,290,7.0,11.0,57,0.00,,,0.00,LWC V2.11 B50,2013-03-01 20:53:00,
2013-03-01 15:58:00,43.9,30.1,29.68,WNW,294,4.0,12.0,58,0.00,,,0.00,LWC V2.11 B50,2013-03-01 20:58:00,
2013-03-01 16:03:00,43.7,29.9,29.68,NNW,327,12.0,12.0,58,0.00,,,0.00,LWC V2.11 B50,2013-03-01 21:03:00,
2013-03-01 16:08:00,43.6,29.8,29.68,WNW,286,5.0,14.0,58,0.00,,,0.00,LWC V2.11 B50,2013-03-01 21:08:00,
2013-03-01 16:13:00,43.5,29.3,29.69,WNW,292,0.0,4.0,57,0.00,,,0.00,LWC V2.11 B50,2013-03-01 21:13:00,
2013-03-01 16:18:00,43.4,29.2,29.69,WSW,246,1.0,15.0,57,0.00,,,0.00,LWC V2.11 B50,2013-03-01 21:18:00,
2013-03-01 16:23:00,43.2,29.0,29.69,WNW,299,10.0,11.0,57,0.00,,,0.00,LWC V2.11 B50,2013-03-01 21:23:00,
2013-03-01 16:28:00,43.2,29.0,29.69,West,276,6.0,13.0,57,0.00,,,0.00,LWC V2.11 B50,2013-03-01 21:28:00,
2013-03-01 16:33:00,43.0,28.4,29.69,WNW,302,0.0,14.0,56,0.00,,,0.00,LWC V2.11 B50,2013-03-01 21:33:00,
2013-03-01 16:38:00,42.8,27.8,29.69,North,0,2.0,12.0,55,0.00,,,0.00,LWC V2.11 B50,2013-03-01 21:38:00,
2013-03-01 16:43:00,42.6,28.0,29.69,WNW,292,0.0,11.0,56,0.00,,,0.00,LWC V2.11 B50,2013-03-01 21:43:00,
2013-03-01 16:48:00,42.5,27.9,29.70,NW,307,6.0,14.0,56,0.00,,,0.00,LWC V2.11 B50,2013-03-01 21:48:00,
2013-03-01 16:53:00,42.4,28.3,29.69,WNW,295,0.0,10.0,57,0.00,,,0.00,LWC V2.11 B50,2013-03-01 21:53:00,
2013-03-01 16:58:00,42.2,28.1,29.70,WNW,295,0.0,6.0,57,0.00,,,0.00,LWC V2.11 B50,2013-03-01 21:58:00,
2013-03-01 17:03:00,42.2,28.1,29.69,WNW,297,5.0,9.0,57,0.00,,,0.00,LWC V2.11 B50,2013-03-01 22:03:00,
2013-03-01 17:08:00,42.1,28.0,29.70,WNW,296,3.0,9.0,57,0.00,,,0.00,LWC V2.11 B50,2013-03-01 22:08:00,
2013-03-01 17:13:00,42.0,28.3,29.70,WNW,290,5.0,5.0,58,0.00,,,0.00,LWC V2.11 B50,2013-03-01 22:13:00,
2013-03-01 17:18:00,41.9,28.2,29.70,WNW,293,10.0,12.0,58,0.00,,,0.00,LWC V2.11 B50,2013-03-01 22:18:00,
2013-03-01 17:23:00,41.9,28.2,29.70,NW,307,0.0,11.0,58,0.00,,,0.00,LWC V2.11 B50,2013-03-01 22:23:00,
2013-03-01 17:28:00,41.8,28.5,29.70,WNW,290,0.0,11.0,59,0.00,,,0.00,LWC V2.11 B50,2013-03-01 22:28:00,
2013-03-01 17:33:00,41.6,27.9,29.71,West,277,7.0,12.0,58,0.00,,,0.00,LWC V2.11 B50,2013-03-01 22:33:00,
2013-03-01 17:38:00,41.4,28.2,29.70,WNW,295,7.0,9.0,59,0.00,,,0.00,LWC V2.11 B50,2013-03-01 22:38:00,
2013-03-01 17:43:00,41.3,28.5,29.71,West,279,6.0,12.0,60,0.00,,,0.00,LWC V2.11 B50,2013-03-01 22:43:00,
2013-03-01 17:48:00,41.1,28.3,29.71,WNW,301,0.0,5.0,60,0.00,,,0.00,LWC V2.11 B50,2013-03-01 22:48:00,
2013-03-01 17:50:00,41.1,28.7,29.71,WNW,283,0.0,0.0,61,0.00,,,0.00,LWC V2.11 B50,2013-03-01 22:50:00,
2013-03-01 17:55:00,40.9,28.5,29.71,WNW,296,7.0,11.0,61,0.00,,,0.00,LWC V2.11 B50,2013-03-01 22:55:00,
2013-03-01 18:00:00,40.8,28.4,29.72,West,268,0.0,14.0,61,0.00,,,0.00,LWC V2.11 B50,2013-03-01 23:00:00,
2013-03-01 18:05:00,40.7,28.7,29.72,WNW,291,0.0,3.0,62,0.00,,,0.00,LWC V2.11 B50,2013-03-01 23:05:00,
2013-03-01 18:10:00,40.6,28.6,29.72,West,275,2.0,4.0,62,0.00,,,0.00,LWC V2.11 B50,2013-03-01 23:10:00,
2013-03-01 18:15:00,40.5,28.5,29.72,WNW,295,0.0,6.0,62,0.00,,,0.00,LWC V2.11 B50,2013-03-01 23:15:00,
2013-03-01 18:20:00,40.4,28.4,29.73,West,281,7.0,10.0,62,0.00,,,0.00,LWC V2.11 B50,2013-03-01 23:20:00,
2013-03-01 18:25:00,40.4,28.8,29.73,WNW,296,2.0,6.0,63,0.00,,,0.00,LWC V2.11 B50,2013-03-01 23:25:00,
2013-03-01 18:30:00,40.2,28.6,29.73,WNW,300,0.0,4.0,63,0.00,,,0.00,LWC V2.11 B50,2013-03-01 23:30:00,
2013-03-01 18:35:00,40.1,28.5,29.73,WNW,292,8.0,17.0,63,0.00,,,0.00,LWC V2.11 B50,2013-03-01 23:35:00,
2013-03-01 18:40:00,39.9,28.3,29.73,West,269,0.0,16.0,63,0.00,,,0.00,LWC V2.11 B50,2013-03-01 23:40:00,
2013-03-01 18:45:00,39.7,28.5,29.73,NW,304,3.0,9.0,64,0.00,,,0.00,LWC V2.11 B50,2013-03-01 23:45:00,
2013-03-01 18:50:00,39.5,28.3,29.74,WNW,302,5.0,14.0,64,0.00,,,0.00,LWC V2.11 B50,2013-03-01 23:50:00,
2013-03-01 18:55:00,39.5,28.3,29.74,WNW,300,0.0,5.0,64,0.00,,,0.00,LWC V2.11 B50,2013-03-01 23:55:00,
2013-03-01 19:00:00,39.3,28.5,29.74,WNW,300,3.0,5.0,65,0.00,,,0.00,LWC V2.11 B50,2013-03-02 00:00:00,
2013-03-01 19:05:00,39.3,28.5,29.74,WNW,289,0.0,15.0,65,0.00,,,0.00,LWC V2.11 B50,2013-03-02 00:05:00,
2013-03-01 19:10:00,39.3,28.5,29.74,WNW,298,5.0,5.0,65,0.00,,,0.00,LWC V2.11 B50,2013-03-02 00:10:00,
2013-03-01 19:15:00,39.3,28.5,29.74,WNW,296,4.0,12.0,65,0.00,,,0.00,LWC V2.11 B50,2013-03-02 00:15:00,
2013-03-01 19:20:00,39.2,28.8,29.74,West,277,0.0,7.0,66,0.00,,,0.00,LWC V2.11 B50,2013-03-02 00:20:00,
2013-03-01 19:25:00,39.2,28.8,29.74,WNW,293,0.0,7.0,66,0.00,,,0.00,LWC V2.11 B50,2013-03-02 00:25:00,
2013-03-01 19:30:00,39.1,28.7,29.74,WNW,292,5.0,12.0,66,0.00,,,0.00,LWC V2.11 B50,2013-03-02 00:30:00,
2013-03-01 19:35:00,38.9,28.9,29.74,NW,305,15.0,17.0,67,0.00,,,0.00,LWC V2.11 B50,2013-03-02 00:35:00,
2013-03-01 19:40:00,38.9,28.9,29.74,WNW,302,11.0,12.0,67,0.00,,,0.00,LWC V2.11 B50,2013-03-02 00:40:00,
2013-03-01 19:45:00,38.8,28.8,29.75,WNW,299,8.0,13.0,67,0.00,,,0.00,LWC V2.11 B50,2013-03-02 00:45:00,
2013-03-01 19:50:00,38.8,28.8,29.75,WNW,287,2.0,6.0,67,0.00,,,0.00,LWC V2.11 B50,2013-03-02 00:50:00,
2013-03-01 19:55:00,38.6,29.0,29.75,WNW,295,0.0,0.0,68,0.00,,,0.00,LWC V2.11 B50,2013-03-02 00:55:00,
2013-03-01 20:00:00,38.5,28.9,29.75,WNW,295,0.0,4.0,68,0.00,,,0.00,LWC V2.11 B50,2013-03-02 01:00:00,
2013-03-01 20:05:00,38.4,28.8,29.75,WNW,300,0.0,8.0,68,0.00,,,0.00,LWC V2.11 B50,2013-03-02 01:05:00,
2013-03-01 20:10:00,38.4,28.8,29.75,WNW,289,6.0,11.0,68,0.00,,,0.00,LWC V2.11 B50,2013-03-02 01:10:00,
2013-03-01 20:15:00,38.4,28.8,29.75,WNW,290,7.0,9.0,68,0.00,,,0.00,LWC V2.11 B50,2013-03-02 01:15:00,
2013-03-01 20:20:00,38.3,28.7,29.75,WNW,291,9.0,9.0,68,0.00,,,0.00,LWC V2.11 B50,2013-03-02 01:20:00,
2013-03-01 20:25:00,38.3,28.7,29.75,NW,314,6.0,10.0,68,0.00,,,0.00,LWC V2.11 B50,2013-03-02 01:25:00,
2013-03-01 20:30:00,38.2,28.6,29.75,WNW,290,10.0,13.0,68,0.00,,,0.00,LWC V2.11 B50,2013-03-02 01:30:00,
2013-03-01 20:35:00,38.2,28.9,29.75,WNW,299,5.0,7.0,69,0.00,,,0.00,LWC V2.11 B50,2013-03-02 01:35:00,
2013-03-01 20:40:00,38.1,28.8,29.75,WNW,287,4.0,12.0,69,0.00,,,0.00,LWC V2.11 B50,2013-03-02 01:40:00,
2013-03-01 20:45:00,38.0,28.7,29.75,WNW,300,2.0,6.0,69,0.00,,,0.00,LWC V2.11 B50,2013-03-02 01:45:00,
2013-03-01 20:50:00,37.9,28.7,29.76,WNW,296,0.0,5.0,69,0.00,,,0.00,LWC V2.11 B50,2013-03-02 01:50:00,
2013-03-01 20:55:00,37.8,28.6,29.76,NW,306,9.0,9.0,69,0.00,,,0.00,LWC V2.11 B50,2013-03-02 01:55:00,
2013-03-01 21:00:00,37.8,28.6,29.76,NW,306,5.0,9.0,69,0.00,,,0.00,LWC V2.11 B50,2013-03-02 02:00:00,
2013-03-01 21:05:00,37.8,28.9,29.76,WNW,285,7.0,11.0,70,0.00,,,0.00,LWC V2.11 B50,2013-03-02 02:05:00,
2013-03-01 21:10:00,37.7,28.5,29.76,WNW,290,12.0,12.0,69,0.00,,,0.00,LWC V2.11 B50,2013-03-02 02:10:00,
2013-03-01 21:15:00,37.7,28.8,29.76,WNW,290,5.0,5.0,70,0.00,,,0.00,LWC V2.11 B50,2013-03-02 02:15:00,
2013-03-01 21:20:00,37.7,28.8,29.76,WNW,285,2.0,6.0,70,0.00,,,0.00,LWC V2.11 B50,2013-03-02 02:20:00,
2013-03-01 21:25:00,37.6,28.7,29.76,WNW,297,0.0,10.0,70,0.00,,,0.00,LWC V2.11 B50,2013-03-02 02:25:00,
2013-03-01 21:30:00,37.5,28.6,29.76,NW,312,6.0,9.0,70,0.00,,,0.00,LWC V2.11 B50,2013-03-02 02:30:00,
2013-03-01 21:35:00,37.5,28.6,29.77,WNW,290,4.0,4.0,70,0.00,,,0.00,LWC V2.11 B50,2013-03-02 02:35:00,
2013-03-01 21:40:00,37.5,28.6,29.77,WNW,298,2.0,5.0,70,0.00,,,0.00,LWC V2.11 B50,2013-03-02 02:40:00,
2013-03-01 21:45:00,37.3,28.4,29.76,NW,309,2.0,9.0,70,0.00,,,0.00,LWC V2.11 B50,2013-03-02 02:45:00,
2013-03-01 21:50:00,37.3,28.4,29.77,WNW,289,1.0,8.0,70,0.00,,,0.00,LWC V2.11 B50,2013-03-02 02:50:00,
2013-03-01 21:55:00,37.2,28.7,29.77,West,277,0.0,10.0,71,0.00,,,0.00,LWC V2.11 B50,2013-03-02 02:55:00,
2013-03-01 22:00:00,37.1,28.6,29.77,WNW,296,11.0,12.0,71,0.00,,,0.00,LWC V2.11 B50,2013-03-02 03:00:00,
2013-03-01 22:05:00,37.0,28.5,29.77,WNW,299,2.0,10.0,71,0.00,,,0.00,LWC V2.11 B50,2013-03-02 03:05:00,
2013-03-01 22:10:00,37.0,28.1,29.76,WNW,283,9.0,11.0,70,0.00,,,0.00,LWC V2.11 B50,2013-03-02 03:10:00,
2013-03-01 22:15:00,36.9,28.0,29.77,West,277,2.0,13.0,70,0.00,,,0.00,LWC V2.11 B50,2013-03-02 03:15:00,
2013-03-01 22:20:00,36.9,28.0,29.77,WNW,283,10.0,10.0,70,0.00,,,0.00,LWC V2.11 B50,2013-03-02 03:20:00,
2013-03-01 22:25:00,36.8,27.9,29.77,West,260,1.0,12.0,70,0.00,,,0.00,LWC V2.11 B50,2013-03-02 03:25:00,
2013-03-01 22:30:00,36.7,27.9,29.77,WNW,298,0.0,6.0,70,0.00,,,0.00,LWC V2.11 B50,2013-03-02 03:30:00,
2013-03-01 22:35:00,36.6,27.4,29.77,WNW,301,7.0,12.0,69,0.00,,,0.00,LWC V2.11 B50,2013-03-02 03:35:00,
2013-03-01 22:40:00,36.6,27.4,29.77,WNW,286,0.0,11.0,69,0.00,,,0.00,LWC V2.11 B50,2013-03-02 03:40:00,
2013-03-01 22:45:00,36.5,27.3,29.77,West,279,5.0,14.0,69,0.00,,,0.00,LWC V2.11 B50,2013-03-02 03:45:00,
2013-03-01 22:50:00,36.5,27.3,29.76,WNW,296,12.0,16.0,69,0.00,,,0.00,LWC V2.11 B50,2013-03-02 03:50:00,
2013-03-01 22:55:00,36.4,27.2,29.76,WNW,298,5.0,17.0,69,0.00,,,0.00,LWC V2.11 B50,2013-03-02 03:55:00,
2013-03-01 23:00:00,36.3,27.5,29.76,WNW,291,0.0,6.0,70,0.00,,,0.00,LWC V2.11 B50,2013-03-02 04:00:00,
2013-03-01 23:05:00,36.2,27.4,29.76,WNW,296,4.0,6.0,70,0.00,,,0.00,LWC V2.11 B50,2013-03-02 04:05:00,
2013-03-01 23:10:00,36.1,27.6,29.76,West,281,1.0,11.0,71,0.00,,,0.00,LWC V2.11 B50,2013-03-02 04:10:00,
2013-03-01 23:15:00,36.1,27.6,29.76,WNW,296,5.0,7.0,71,0.00,,,0.00,LWC V2.11 B50,2013-03-02 04:15:00,
2013-03-01 23:20:00,36.0,27.5,29.76,WNW,296,2.0,12.0,71,0.00,,,0.00,LWC V2.11 B50,2013-03-02 04:20:00,
2013-03-01 23:25:00,36.0,27.5,29.76,WNW,286,0.0,9.0,71,0.00,,,0.00,LWC V2.11 B50,2013-03-02 04:25:00,
2013-03-01 23:30:00,35.9,27.4,29.76,WNW,295,0.0,1.0,71,0.00,,,0.00,LWC V2.11 B50,2013-03-02 04:30:00,
2013-03-01 23:35:00,35.9,27.4,29.76,WNW,296,4.0,9.0,71,0.00,,,0.00,LWC V2.11 B50,2013-03-02 04:35:00,
2013-03-01 23:40:00,35.9,27.4,29.76,WNW,284,3.0,10.0,71,0.00,,,0.00,LWC V2.11 B50,2013-03-02 04:40:00,
2013-03-01 23:45:00,35.8,27.3,29.76,ENE,72,0.0,9.0,71,0.00,,,0.00,LWC V2.11 B50,2013-03-02 04:45:00,
2013-03-01 23:50:00,35.8,27.3,29.76,WNW,302,3.0,12.0,71,0.00,,,0.00,LWC V2.11 B50,2013-03-02 04:50:00,
2013-03-01 23:55:00,35.7,27.2,29.76,WNW,286,4.0,11.0,71,0.00,,,0.00,LWC V2.11 B50,2013-03-02 04:55:00,